STARLINK-32303, 61912

Orbit data source: Space-Track

STARLINK-32303, 61912 is a payload satellite owned by SpaceX/Seattle (US) in LEO that was launched on Mon, 11 Nov 2024 UTC via an FALCON 9 launch vehicle from the Air Force Eastern Test Range (AFETR). Payload-class satellites include a variety of spacecraft equipped with specific instruments for various scientific and technological missions. These include communications satellites like Starlink; space stations such as the ISS; scientific satellites like the Hubble; Earth observation satellites from companies like Planet Labs, Umbra, and HawkEye 360; GPS; miniature CubeSats for education and research; and military/defense satellites.

Loading next visibility...
Identifier
61912, 2024-207A
Orbit
LEO
Last TLE update
7 hours ago
Origin
Manufacturer
SpaceX/Seattle
Mission
Operational Commercial Communications
Bus & Motor
STARLINK V2M, Unknown motor
Mass
730 kg wet, ~700 kg dry
Launch date (UTC)
2024-11-11 (8 months ago)
Launch vehicle
FALCON 9
Launch site
Air Force Eastern Test Range (AFETR)
Object type
Payload
Rocket body
Debris
Shape & HBR
Box + 2 Pan, 29 m
Radar Cross Section
33.884 m², Large (>1 m²)

Expand to show TLE details & history

TLE from 7 hours ago
0 STARLINK-32303
1 61912U 24207A   25186.53554446  .00003119  00000-0  12293-3 0  9996
2 61912  42.9973 237.4812 0001009 220.2538 139.8239 15.27545991 37513
Epoch: 2025-07-05T12:51Z
TLE epoch observation values (Epoch: 2025-07-05T12:51:11.041Z)
Latitude
-0.00001°
Longitude
120.91299°
Altitude
483.455 km
Speed
7.625 km/s
True Right ascension
15h 49m 55s
True Declination
0° 00' 00"
Sunlit
Object was in full shadow at epoch
Visualization orbit readout
Latitude
37.79774°
Longitude
-116.49935°
Altitude
485.342 km
Speed
7.628 km/s
Apparent Right ascension
21h 54m 51s
Apparent Declination
0° 45' 30"
Sunlit
Object is in daylight
Visualization observer readout
Local Sidereal Time
07:33:58
Azimuth
312.815° NW
Elevation
-38.172°
Doppler factor
1
Orbital elements
Apogee altitude
485.789 km
Perigee altitude
484.404 km
Semi-major axis
6,863.234 km
Eccentricity
0.0001
Inclination
42.9973°
RAAN
237.4812°
Arg. of periapsis
220.2538°
True anomaly
Unknown
Mean anomaly
139.8239°
Eccentric anomaly
Unknown
Mean motion
3.81724 °/min
Orbital period
94.31 mins
BSTAR
0.00012293
Loading maneuver chart data...
Loading SW <> Apogee altitude chart data...
Loading historical data...
Loading historical data...
Loading historical data...
Loading historical data...
Loading historical data...
Loading historical data...
Loading historical data...

STARLINK-32303 Visibility forecast

Observer location: undefined°, undefined°

Span
Click to sort rows by Start time (UTC) header in descending order
Start Az.
Max El. time (UTC)
Max El. Az.
Max El.
End time (UTC)
End Az.
6 mins2025-07-06 06:18:14.443Z204.292° SW2025-07-06 06:21:14.443Z146.461° SSE24.413°2025-07-06 06:24:14.443Z89.908° E
6 mins2025-07-06 07:57:14.443Z256.67° W2025-07-06 08:00:14.443Z43.487° NE43.568°2025-07-06 08:03:14.443Z70.881° E
5 mins2025-07-06 09:37:14.443Z295.67° NW2025-07-06 09:39:14.443Z10.385° NNE37.904°2025-07-06 09:42:14.443Z76.594° E
5 mins2025-07-06 11:16:14.443Z287.765° WNW2025-07-06 11:18:14.443Z189.334° SSW44.99°2025-07-06 11:21:14.443Z109.975° ESE
4 mins2025-07-06 12:55:14.443Z249.892° W2025-07-06 12:57:14.443Z205.539° SW20.282°2025-07-06 12:59:14.443Z168.802° S
|